This demonstration page uses our WeatherBlox Daily Observations layout. Learn more.

Left ArrowRight Arrow

38.88101, -77.10428

Hourly Observations for November 17, 2018

Temp ( °F °C ) Dew Point ( °F °C ) Humidity (%) Winds ( mph kmh ) Pressure ( in mb ) Visibility ( mi km ) Precip ( " mm )
12:52 am 00:52 Mostly Clear 46 7.8 30 -1.1 54 54 VRB 7 11 30.11 1020 10 16.0934 0 0
1:52 am 01:52 Mostly Clear 45 7.2 30 -1.1 56 56 WNW 9 15 30.13 1020 10 16.0934 0 0
2:52 am 02:52 Mostly Clear 44 6.7 30 -1.1 58 58 NNW 8 13 30.16 1021 10 16.0934 0 0
3:52 am 03:52 Mostly Clear 41 5 30 -1.1 65 65 NNW 6 9 30.17 1022 10 16.0934 0 0
4:52 am 04:52 Mostly Clear 42 5.6 30 -1.1 62 62 NW 7 11 30.2 1023 10 16.0934 0 0
5:52 am 05:52 Partly Cloudy 42 5.6 30 -1.1 62 62 NNW 6 9 30.23 1024 10 16.0934 0 0
6:32 am 06:32 Mostly Cloudy 42 5.6 31 -0.6 65 65 NNW 6 9 30.24 1024 10 16.0934 0 0
6:52 am 06:52 Mostly Cloudy 42 5.6 31 -0.6 65 65 NNW 10 17 30.25 1025 10 16.0934 0 0
7:52 am 07:52 Mostly Cloudy 44 6.7 31 -0.6 60 60 N 7 11 30.27 1025 10 16.0934 0 0
8:52 am 08:52 Cloudy 45 7.2 31 -0.6 58 58 NNW 9 15 30.29 1026 10 16.0934 0 0
9:52 am 09:52 Cloudy 45 7.2 30 -1.1 56 56 WNW 10 17 30.31 1027 10 16.0934 0 0
10:52 am 10:52 Cloudy 46 7.8 31 -0.6 56 56 NW 12 19 30.31 1027 10 16.0934 0 0
11:52 am 11:52 Mostly Cloudy 49 9.4 33 0.6 55 55 N 14 22 30.29 1026 10 16.0934 0 0
12:52 pm 12:52 Mostly Sunny 50 10 32 0 50 50 N 6 9 30.27 1025 10 16.0934 0 0
1:52 pm 13:52 Mostly Sunny 51 10.6 32 0 48 48 NW 8 13 30.26 1025 10 16.0934 0 0
2:52 pm 14:52 Partly Cloudy 51 10.6 31 -0.6 46 46 NW 12 19 30.26 1025 10 16.0934 0 0
3:52 pm 15:52 Partly Cloudy 50 10 31 -0.6 48 48 W 5 7 30.27 1025 10 16.0934 0 0
4:52 pm 16:52 Partly Cloudy 48 8.9 31 -0.6 52 52 NNW 8 13 30.29 1026 10 16.0934 0 0
5:52 pm 17:52 Mostly Clear 45 7.2 31 -0.6 58 58 N 6 9 30.3 1026 10 16.0934 0 0
6:52 pm 18:52 Mostly Clear 45 7.2 31 -0.6 58 58 NNW 6 9 30.32 1027 10 16.0934 0 0
7:52 pm 19:52 Mostly Clear 43 6.1 33 0.6 68 68 N 9 15 30.32 1027 10 16.0934 0 0
8:52 pm 20:52 Mostly Clear 44 6.7 33 0.6 65 65 Calm 30.33 1027 10 16.0934 0 0
9:52 pm 21:52 Mostly Clear 43 6.1 33 0.6 68 68 Calm 30.34 1027 10 16.0934 0 0
10:52 pm 22:52 Mostly Clear 41 5 35 1.7 79 79 Calm 30.35 1028 8 12.87472 0 0
11:52 pm 23:52 Mostly Clear 40 4.4 34 1.1 79 79 Calm 30.35 1028 9 14.48406 0 0

Powered by AerisWeather